Lapse_Rate
5.2 5.1 5.1 5.1 5.1 5.0 5.1 5.3 5.3 5.4 5.6 5.9 5.9 6.1 6.2 6.5 6.7 6.7 6.9 7.1 7.0 7.0 6.8 6.9 6.6 6.7 6.7 6.4 6.3 6.4 6.4 7.3 7.4 7.1 7.3 6.9 6.8 6.7 6.9 7.1 7.2 7.3 7.2 7.3 7.2
5.1 5.1 5.1 5.0 4.9 5.1 5.0 5.1 5.2 5.5 5.6 5.9 6.1 6.2 6.2 6.4 6.7 6.8 6.7 7.0 7.1 6.9 6.9 6.8 6.9 6.4 6.9 6.4 6.4 6.0 6.5 7.3 7.2 7.0 7.0 6.9 6.6 6.8 6.7 7.2 7.1 7.3 7.5 7.5 7.0
5.0 5.0 5.0 4.9 4.8 4.7 4.8 4.9 5.1 5.3 5.5 5.6 5.8 6.0 6.0 6.1 6.5 6.9 7.0 6.9 7.1 7.2 7.0 6.6 6.9 6.6 6.5 6.5 6.1 6.1 6.5 7.0 6.9 6.6 6.5 6.6 6.7 6.9 6.8 7.2 7.5 7.5 7.6 7.5 7.2
4.9 4.8 4.8 4.9 4.9 4.8 4.7 4.7 4.9 5.0 5.2 5.4 5.3 5.6 5.7 5.9 6.1 6.6 6.6 6.9 6.9 6.7 6.8 6.5 6.4 6.7 6.3 6.3 6.2 6.1 6.3 6.6 6.8 6.7 6.4 6.3 6.8 6.9 7.0 7.0 7.3 7.5 7.6 7.5 7.3
4.8 4.8 4.8 4.9 5.0 5.0 5.0 5.1 5.0 5.2 5.4 5.4 5.4 5.6 5.8 5.8 6.7 6.5 6.3 6.4 6.7 6.7 6.7 6.6 6.2 6.4 6.2 6.3 6.4 6.5 6.3 6.5 6.6 6.9 6.5 6.1 6.9 6.8 7.0 7.1 7.1 7.4 7.7 7.6 7.3
4.7 4.7 4.8 4.8 5.0 5.1 5.1 5.1 5.1 5.4 5.2 5.1 5.2 5.5 5.7 6.3 6.9 6.9 6.8 6.7 6.5 6.7 6.6 6.7 6.7 6.1 6.2 6.2 6.1 6.6 6.2 6.3 6.6 6.7 6.5 6.1 6.9 6.8 7.4 7.3 7.2 7.6 7.6 7.6 7.4
4.8 4.8 4.8 4.9 5.2 5.2 5.4 5.3 5.2 5.4 5.4 5.5 5.6 5.8 6.2 6.9 7.0 7.2 7.0 6.6 6.6 6.6 6.7 6.7 6.7 6.3 5.7 6.4 6.0 6.5 6.4 6.4 6.6 6.8 6.5 6.5 7.0 7.0 7.1 7.3 7.3 7.6 7.6 7.6 7.5
4.8 4.9 5.0 5.1 5.2 5.3 5.4 5.5 5.5 5.7 6.0 6.1 6.1 6.2 6.7 7.1 7.2 7.2 7.3 7.3 6.8 7.1 6.9 6.8 6.6 6.4 5.4 5.9 6.2 6.2 6.3 6.7 7.4 7.4 6.5 6.7 7.8 7.2 7.1 7.4 7.5 7.6 7.8 7.6 7.5
4.9 4.9 5.1 5.2 5.4 5.5 5.7 5.8 5.9 6.1 6.4 6.7 6.8 6.9 7.0 7.0 7.2 7.3 7.2 7.5 7.2 7.2 7.3 7.1 6.6 6.4 5.7 5.7 6.3 6.2 6.7 7.5 7.6 7.2 6.8 6.6 7.6 7.9 7.5 7.4 7.9 7.7 7.8 7.8 7.6
5.2 5.4 5.4 5.4 5.6 5.8 6.0 6.1 6.4 6.6 6.8 7.0 7.3 7.2 6.9 6.8 7.0 7.1 7.1 7.2 7.1 7.0 7.1 7.0 6.5 6.3 5.8 6.1 6.6 7.4 7.1 7.3 7.5 7.8 6.9 6.8 6.9 7.6 7.5 7.6 7.8 7.7 7.7 7.8 7.8
5.4 5.5 5.5 5.7 5.8 6.0 6.3 6.4 6.5 6.8 7.1 7.0 6.9 7.1 7.4 7.1 7.0 6.9 7.1 7.0 7.5 7.1 7.2 7.2 6.6 5.8 6.4 6.4 7.2 7.4 6.9 7.3 7.7 7.5 6.7 7.1 6.9 7.1 7.7 7.7 7.5 7.9 7.6 7.7 7.8
5.6 5.7 5.8 6.0 6.0 6.1 6.3 6.4 6.5 6.5 7.5 7.6 7.6 7.6 7.4 7.4 7.6 7.6 7.1 6.8 7.1 7.5 7.4 6.2 5.9 6.8 6.5 6.8 6.6 6.5 6.4 6.8 7.4 7.5 6.6 7.0 6.9 6.7 7.2 7.6 7.5 7.7 7.7 7.6 7.7
6.0 5.8 6.1 6.1 6.2 6.3 6.3 6.4 6.4 6.6 6.8 7.7 7.4 7.3 7.2 7.4 7.1 7.7 7.1 7.2 6.7 6.9 7.4 7.1 7.2 7.0 6.7 6.6 6.2 6.2 6.3 6.9 7.2 7.6 6.9 6.5 6.7 7.0 7.3 7.2 7.6 7.8 7.6 7.6 7.7
6.2 6.2 6.2 6.3 6.3 6.3 6.3 6.4 6.4 6.3 6.7 7.0 7.1 6.9 7.1 7.1 7.0 7.0 7.0 6.8 6.2 6.5 6.9 6.6 6.7 6.8 7.1 6.6 6.5 6.3 6.7 6.8 6.9 7.2 7.3 6.8 7.4 7.2 7.8 7.5 7.7 7.7 7.6 7.6 7.7
6.2 6.5 6.5 6.4 6.3 6.3 6.2 6.1 6.2 6.2 7.4 7.2 7.0 6.8 6.7 7.1 6.8 6.7 6.7 6.9 7.0 6.3 6.6 6.9 6.9 7.5 7.3 7.2 7.1 6.6 6.7 6.8 6.7 7.0 7.0 7.2 6.8 7.1 7.6 7.6 7.6 7.6 7.7 7.7 7.7
6.4 6.4 6.6 6.4 6.3 6.2 6.1 6.0 6.0 6.3 7.3 7.0 6.7 6.8 6.8 7.0 6.8 6.7 6.9 6.9 6.7 6.1 6.1 6.4 6.8 7.0 7.0 7.5 7.2 6.9 6.8 7.0 6.8 7.1 7.2 7.0 7.1 7.6 7.8 8.2 8.1 7.7 7.5 7.7 7.8
6.5 6.5 6.6 6.3 6.2 6.3 6.0 5.9 5.8 6.7 6.8 6.7 6.7 6.9 6.9 7.1 6.8 7.0 7.1 6.9 6.6 6.6 6.5 6.4 6.7 7.3 7.1 7.1 7.3 6.7 7.6 8.2 7.9 7.6 7.7 7.5 7.0 7.6 7.5 8.1 7.9 7.7 7.7 7.7 8.0
6.4 6.4 6.3 6.1 6.2 6.1 5.9 5.5 5.9 6.4 6.5 6.3 7.1 7.2 7.1 7.2 7.0 7.1 7.0 7.1 6.5 6.5 6.9 7.2 7.3 7.1 7.3 7.8 8.0 7.5 7.6 8.6 8.4 8.8 8.7 7.3 7.4 7.5 7.5 7.9 7.9 7.6 7.7 7.7 8.0
6.5 6.4 6.2 6.0 6.1 6.0 5.7 5.5 6.7 6.5 6.1 6.2 6.6 7.3 7.7 7.0 7.2 7.2 7.0 7.0 6.5 6.5 6.8 6.8 7.4 7.1 7.5 7.5 7.9 8.0 7.5 7.7 8.2 8.1 7.9 8.2 7.6 7.4 7.4 7.9 8.0 7.6 7.7 8.1 8.1
6.3 6.3 6.2 6.0 6.1 5.8 5.4 5.6 6.1 6.0 6.4 6.4 6.9 7.0 7.3 7.2 7.3 7.1 7.3 6.8 6.7 6.6 6.3 6.0 6.7 7.1 7.0 7.5 7.3 8.1 8.1 7.9 7.7 7.7 8.0 8.4 8.3 8.2 7.6 7.6 8.2 7.9 7.8 8.1 8.2
5.4 5.6 6.0 6.0 5.6 5.4 5.1 5.6 5.6 5.7 6.5 6.4 6.7 6.8 7.0 6.9 6.8 7.0 7.2 6.9 6.6 6.6 6.5 5.9 5.9 7.2 7.3 7.5 8.0 7.5 7.6 7.8 8.2 7.9 8.3 8.4 9.2 7.8 7.6 7.8 8.2 8.1 7.8 8.1 8.4
5.5 5.3 5.8 5.5 5.5 5.2 5.0 5.3 5.8 6.4 6.7 6.6 6.5 6.6 6.7 7.0 7.0 7.2 6.8 6.9 6.5 6.6 6.3 5.8 6.0 6.2 6.9 7.4 7.7 7.4 7.6 7.7 7.9 8.1 7.7 7.9 8.1 8.0 8.1 7.9 8.1 8.3 8.2 8.2 8.6
5.5 5.4 5.5 5.5 5.3 5.2 5.3 5.5 6.1 6.3 6.4 6.4 6.5 6.6 6.8 6.9 7.3 7.2 6.9 6.6 6.9 6.6 6.1 5.8 6.2 6.8 7.4 7.8 7.7 7.2 7.1 6.9 6.8 6.9 7.1 7.7 8.4 7.8 8.0 8.0 8.3 8.5 8.2 8.4 8.8
5.8 5.6 5.5 5.4 5.7 5.7 6.0 6.1 6.1 6.3 6.5 6.3 6.2 6.3 6.7 7.0 7.3 6.9 6.8 6.7 6.8 6.5 6.1 5.7 5.8 6.5 7.8 7.8 7.0 7.0 6.6 6.6 6.3 6.3 7.2 7.3 7.5 7.6 7.9 8.2 8.0 8.3 8.5 8.3 8.7
5.8 5.6 5.5 5.6 5.7 6.2 6.1 6.1 6.6 6.6 6.3 6.3 6.2 6.3 6.7 7.1 7.4 7.2 7.1 6.8 6.6 6.3 6.2 6.1 5.9 6.2 6.2 6.4 6.8 6.9 6.8 7.0 6.6 6.5 6.3 6.6 7.0 7.4 7.3 8.1 8.2 8.4 8.4 8.6 8.7
5.6 5.3 5.7 5.8 6.0 6.1 6.1 6.3 6.9 7.1 7.0 7.2 6.9 7.2 7.1 7.1 7.3 7.4 6.8 6.6 6.5 6.1 6.2 5.9 6.1 5.8 6.1 6.4 6.6 6.9 7.3 7.2 6.8 6.7 6.3 6.4 6.1 7.1 7.4 7.8 8.0 8.0 8.4 8.2 8.4
5.4 5.7 5.8 5.9 6.2 6.4 6.5 6.9 7.2 7.5 7.3 7.2 7.1 7.0 7.0 7.2 7.4 7.2 6.6 6.4 6.0 5.8 5.9 5.7 6.0 6.4 6.9 7.1 6.9 6.4 6.4 7.0 7.3 7.3 6.7 6.7 6.8 7.1 7.3 7.5 7.9 8.1 8.4 8.3 8.5
Wind_Speed
13 13 15 16 17 18 20 20 21 21 21 22 24 25 28 30 35 13 13 0 2 4 8 13 10 9 9 8 8 4 8 11 12 12 12 6 5 2 4 10 6 8 13 7 2
14 14 15 17 18 19 20 21 21 22 23 24 24 25 26 27 18 18 4 6 5 10 13 16 15 13 9 12 7 11 11 14 6 9 9 9 7 11 7 11 13 14 13 10 8
14 16 17 18 20 22 22 22 22 23 23 23 24 23 26 27 9 1 5 3 8 14 8 8 8 13 14 9 13 12 17 12 9 10 10 14 13 10 13 17 16 14 15 6 10
14 15 17 18 20 22 23 23 24 26 26 23 22 21 24 6 7 2 4 1 7 14 6 9 10 13 14 13 15 13 17 17 13 12 12 15 16 15 17 21 18 14 10 5 9
15 17 18 20 21 22 25 25 25 27 28 25 20 15 10 5 12 1 3 3 7 11 12 10 13 13 15 11 14 17 18 16 16 15 16 14 19 20 23 21 19 12 7 8 7
16 17 19 21 23 26 27 29 28 28 28 25 15 5 7 10 3 2 3 3 7 11 10 11 7 11 9 13 14 7 12 16 15 15 16 16 22 19 23 14 9 10 12 9 7
15 18 20 22 23 26 29 31 29 27 27 18 8 7 7 17 3 2 2 4 6 5 7 8 13 11 5 11 15 12 15 17 18 18 19 15 22 22 21 6 10 10 11 9 7
17 17 18 21 24 27 31 34 31 26 13 5 8 6 8 4 12 12 11 15 14 17 16 14 11 15 16 7 7 10 14 15 6 8 11 11 16 7 4 6 12 10 10 9 8
16 17 19 20 22 27 33 35 28 4 4 10 5 5 8 3 6 6 6 6 4 5 9 5 7 12 10 16 14 14 15 15 11 10 10 13 15 5 6 8 12 10 11 10 8
12 15 19 21 24 27 35 32 8 5 5 5 2 6 6 3 6 11 9 6 4 8 7 11 9 11 14 15 17 16 18 15 14 5 10 14 17 16 10 7 13 11 11 11 10
6 13 17 20 23 29 20 7 4 5 4 9 17 15 20 11 12 6 2 5 6 7 7 16 13 18 22 21 22 15 14 15 12 2 7 13 17 16 16 11 12 11 11 12 11
6 10 15 19 22 20 8 4 5 4 13 15 20 21 21 17 10 11 8 8 9 14 11 9 20 20 19 22 22 21 19 17 16 13 11 17 17 14 16 15 10 10 12 12 11
6 8 14 18 22 4 4 6 5 7 7 7 5 7 4 7 6 7 9 9 13 15 17 18 9 12 20 22 19 21 22 18 19 14 13 19 20 20 17 11 9 9 10 10 12
5 6 11 19 6 7 1 7 10 3 5 2 2 2 4 4 5 4 7 14 12 14 13 13 18 14 16 21 21 21 18 20 17 15 11 3 12 14 11 16 17 15 11 12 12
5 5 7 6 8 4 6 13 12 3 6 4 4 3 1 6 9 3 3 6 18 16 7 9 10 16 19 19 17 17 15 17 16 16 16 19 10 11 10 12 12 13 12 12 12
7 7 5 5 4 5 12 14 3 5 8 1 2 4 6 1 3 7 3 4 4 15 17 18 12 8 14 14 16 7 13 10 8 9 13 17 13 10 13 11 6 4 2 10 13
7 7 6 5 4 7 11 4 5 7 3 3 2 6 6 6 1 7 3 4 3 4 10 16 22 15 13 7 10 14 9 6 8 7 8 7 12 16 7 10 11 11 8 8 12
10 5 5 9 4 6 4 5 10 3 5 2 4 8 3 8 3 8 1 3 3 6 7 5 5 23 18 20 10 20 17 7 9 10 7 9 8 11 9 11 10 7 5 7 12
5 5 5 5 9 5 5 10 5 4 2 5 8 10 8 2 5 6 5 1 4 11 4 4 5 2 17 19 18 13 16 19 18 14 7 7 7 8 9 10 10 11 4 9 12
5 3 7 7 10 6 6 14 7 3 2 3 6 3 9 1 4 7 4 4 1 7 10 5 6 2 2 9 18 19 4 8 11 9 15 12 13 7 9 11 9 8 11 6 11
5 4 3 14 9 6 9 8 8 5 4 4 8 9 8 6 5 6 5 10 1 5 10 6 3 3 6 7 8 13 16 13 9 12 11 11 9 9 13 11 9 8 6 4 9
4 4 5 11 7 5 10 4 1 8 6 7 7 8 10 11 14 15 14 10 8 13 10 5 4 6 10 10 9 9 8 18 13 17 10 13 13 1 12 9 6 10 5 1 5
3 5 3 10 7 10 8 9 10 7 8 7 11 9 9 13 12 14 13 8 4 4 2 7 4 5 5 5 2 4 2 1 6 8 19 14 3 3 8 11 11 9 6 2 4
3 5 5 5 6 11 14 14 14 7 12 14 10 7 11 13 12 9 8 6 3 9 7 6 7 9 10 7 6 6 6 9 4 5 12 16 17 18 18 15 13 15 11 10 5
4 6 8 6 12 12 11 7 15 14 11 7 7 17 15 14 15 17 18 16 16 11 9 6 12 12 14 19 18 17 18 17 16 14 14 15 19 13 14 19 18 15 12 8 9
4 5 5 10 10 15 17 18 18 11 11 10 14 11 11 16 16 10 8 9 8 4 3 1 7 6 14 16 18 20 21 21 21 19 21 22 27 20 20 18 21 19 20 18 12
5 6 4 9 15 12 13 13 13 15 16 16 15 13 14 15 9 10 15 15 15 13 7 4 4 6 11 5 12 15 22 22 22 20 17 19 20 18 20 22 21 16 15 15 14
Wind_Direction
357 355 351 351 346 345 343 340 337 335 332 329 331 330 329 325 319 286 284 148 157 204 232 162 201 184 187 212 228 234 241 249 247 235 236 177 276 314 298 268 233 230 268 315 204
354 353 351 346 343 342 337 334 331 329 325 326 327 326 325 326 311 288 20 265 216 178 192 180 186 190 191 219 203 221 235 252 273 252 247 269 256 293 268 259 262 254 258 239 242
343 342 343 342 339 334 330 324 323 322 320 322 321 324 322 322 293 41 59 62 183 183 223 224 193 198 225 211 212 218 247 258 239 253 239 278 277 278 274 277 278 305 306 237 233
348 347 343 339 336 330 325 321 320 318 317 316 315 319 316 293 299 79 84 53 184 196 201 205 204 203 232 219 219 243 242 262 250 265 257 261 274 270 272 274 302 299 291 247 225
346 343 339 338 335 330 323 319 317 315 314 311 309 317 313 239 248 200 284 180 184 195 213 206 224 218 236 238 232 240 255 256 255 257 253 267 265 270 276 280 285 270 257 249 241
344 343 339 337 334 330 324 319 316 314 311 309 300 288 258 257 302 204 344 201 230 210 211 215 225 241 261 257 234 260 259 260 259 251 249 257 266 265 265 279 277 246 244 231 221
343 340 337 333 331 326 319 313 315 316 314 311 266 206 238 254 7 287 290 237 212 223 242 252 248 230 240 246 239 256 260 258 251 255 257 269 265 249 262 259 267 248 242 234 224
337 337 332 331 328 324 317 314 317 315 323 335 165 194 252 244 297 273 255 257 252 256 264 264 228 239 244 264 231 243 242 256 236 244 224 224 269 186 200 230 283 253 236 237 229
326 330 329 328 328 325 318 314 313 310 87 131 180 228 264 299 269 307 213 227 186 225 220 226 207 225 204 232 246 235 255 239 256 214 247 221 260 152 196 272 285 269 246 235 222
317 327 329 330 331 327 320 311 290 211 205 238 250 244 240 327 329 311 284 245 211 144 164 209 210 214 217 219 229 234 234 252 260 209 231 236 251 267 257 263 276 271 245 238 229
313 327 331 330 330 326 325 312 305 197 338 275 283 274 289 301 295 241 299 249 190 189 203 203 213 216 219 225 243 271 262 252 260 285 258 254 269 269 272 268 266 253 241 238 229
308 327 330 330 329 325 312 50 47 328 299 270 264 269 271 275 286 261 257 235 199 215 190 196 234 238 230 235 240 246 249 252 261 265 272 270 274 271 271 269 271 262 237 237 215
277 329 329 328 324 308 8 60 346 319 273 297 251 266 293 174 237 280 223 220 241 227 197 220 237 233 231 235 235 239 244 251 254 263 260 270 273 263 253 242 232 247 257 235 222
287 338 331 331 277 338 254 354 339 294 279 241 211 176 180 241 245 245 241 230 225 241 230 246 254 240 228 233 226 245 232 251 263 257 261 162 278 286 249 262 259 254 229 236 218
299 321 330 341 311 296 341 327 324 207 284 88 120 77 326 255 318 133 245 211 236 224 213 216 214 215 230 230 222 246 262 252 252 256 257 252 255 268 248 256 252 250 237 224 212
277 304 309 237 257 303 320 316 232 229 242 137 45 341 352 209 287 327 235 237 260 236 242 254 244 254 249 247 231 223 235 234 237 248 244 242 239 256 244 244 248 224 258 202 205
267 268 267 270 287 319 312 284 221 243 76 87 350 343 336 345 57 342 237 201 264 234 215 234 244 238 221 219 217 227 208 212 222 213 244 189 215 241 232 257 262 284 263 202 201
261 241 229 251 250 306 291 210 222 22 254 9 312 314 319 7 354 346 222 178 46 307 284 231 214 223 218 219 202 201 212 221 226 235 241 176 223 233 242 259 250 257 254 196 197
211 223 244 237 220 233 233 213 227 231 310 293 301 281 246 252 328 333 3 65 41 25 301 325 246 52 235 223 226 196 217 235 262 264 269 235 215 273 240 240 238 254 240 223 207
214 213 246 192 180 194 220 232 228 242 329 265 257 249 273 281 283 347 310 65 154 30 354 11 283 359 249 227 228 244 216 193 223 243 243 237 240 248 210 234 239 230 247 226 203
210 226 109 168 167 189 222 226 247 229 287 267 267 266 269 290 297 321 274 307 0 340 337 332 275 269 299 212 201 206 234 242 274 233 255 262 258 182 240 254 276 313 258 249 209
205 212 143 170 186 201 226 201 277 239 226 261 263 263 261 285 292 291 272 254 303 320 293 11 282 275 275 285 306 307 263 226 235 237 230 254 258 210 229 264 269 312 282 277 205
200 204 185 199 219 218 216 229 236 250 242 244 244 243 252 257 264 255 264 282 250 307 6 7 196 257 229 221 115 225 146 242 299 267 254 253 218 91 293 284 275 288 305 178 182
187 199 173 213 259 253 223 233 232 220 254 250 259 256 245 237 240 261 250 280 223 295 302 272 248 259 271 334 331 274 264 277 272 249 261 252 262 265 274 278 272 283 269 283 180
196 227 202 193 227 233 232 247 234 223 226 220 242 233 245 251 253 256 260 264 273 290 281 248 248 246 258 275 285 279 277 275 264 257 258 271 273 269 248 263 277 281 279 295 257
196 210 198 244 210 218 229 233 237 232 238 231 233 254 235 240 241 267 298 254 240 249 302 48 251 285 262 255 257 263 266 261 257 263 268 264 259 260 270 267 265 261 265 269 263
216 224 244 224 228 233 225 232 243 246 236 245 260 268 263 277 263 277 282 277 271 271 271 273 246 237 251 255 269 251 247 250 259 248 269 271 269 257 248 241 248 249 249 254 256